Weather History for Buena Vista, CO

Change the Weather History Date:

Friday, August 29, 2014

  Actual Average (KLXV) Record (KLXV)
Temperature  
Mean Temperature 57 °F -  
Max Temperature 76 °F 66 °F 78 °F (1990)
Min Temperature 38 °F 35 °F 28 °F (1977)
Degree Days  
Heating Degree Days 8 15  
Month to date heating degree days 357  
Since 1 June heating degree days 1173  
Since 1 July heating degree days 693  
Cooling Degree Days 0 0  
Month to date cooling degree days 0  
Year to date cooling degree days 0  
Since 1 June cooling degree days 0  
Growing Degree Days 7 (Base 50)    
Moisture  
Dew Point 36 °F    
Average Humidity 55    
Maximum Humidity 87    
Minimum Humidity 14    
Precipitation  
Precipitation 0.00 in 0.06 in 0.18 in (1983)
Month to date precipitation 1.91  
Year to date precipitation 8.83  
Sea Level Pressure  
Sea Level Pressure 30.32 in    
Wind  
Wind Speed 5 mph (North)    
Max Wind Speed 24 mph    
Max Gust Speed 36 mph    
Visibility 10 miles    
Events Rain , Thunderstorm    
T = Trace of Precipitation, MM = Missing Value Source: NWS Daily Summary

Daily Weather History Graph

Daily Weather History Graph

Search for Another Location

Airport:

Trip Planner

Search our weather history database for the weather conditions in past years. The results will help you decide how hot, cold, wet, or windy it might be!

Date:

Astronomy

Aug. 29, 2014 Rise Set
Actual Time 6:30 AM MDT 7:39 PM MDT
Civil Twilight 6:03 AM MDT 8:06 PM MDT
Nautical Twilight 5:30 AM MDT 8:39 PM MDT
Astronomical Twilight 4:56 AM MDT 9:13 PM MDT
Moon 10:20 AM MDT 9:41 PM MDT
Length of Visible Light 14h 03m
Length of Day
13h 08m
Waxing Crescent, 15% of the Moon is Illuminated
Aug 29
Waxing Crescent
Sep 2
First Quarter
Sep 8
Full
Sep 15
Last Quarter
Sep 24
New

Hourly Weather History & Observations

Time (MDT) Temp. Windchill Dew Point Humidity Pressure Visibility Wind Dir Wind Speed Gust Speed Precip Events Conditions
12:15 AM 49.3 °F - 38.8 °F 67% 30.33 in 10.0 mi WNW 9.2 mph - N/A   Clear
12:35 AM 47.8 °F - 38.5 °F 70% 30.33 in 10.0 mi SSE 3.5 mph - N/A   Clear
12:55 AM 45.9 °F 42.3 °F 37.8 °F 73% 30.33 in 10.0 mi SE 6.9 mph - N/A   Clear
1:15 AM 45.9 °F 42.9 °F 37.0 °F 71% 30.32 in 10.0 mi SW 5.8 mph - N/A   Clear
1:35 AM 45.3 °F - 37.2 °F 73% 30.32 in 10.0 mi Calm Calm - N/A   Clear
1:55 AM 43.3 °F - 37.2 °F 79% 30.32 in 10.0 mi Calm Calm - N/A   Clear
2:15 AM 40.1 °F - 36.1 °F 86% 30.32 in 10.0 mi Calm Calm - N/A   Clear
2:35 AM 41.0 °F - 36.0 °F 82% 30.32 in 10.0 mi Calm Calm - N/A   Clear
2:55 AM 38.8 °F - 35.1 °F 86% 30.32 in 10.0 mi Calm Calm - N/A   Clear
3:15 AM 39.2 °F 37.0 °F 35.6 °F 87% 30.32 in 10.0 mi SW 3.5 mph - N/A   Clear
3:55 AM 41.0 °F 36.4 °F 36.7 °F 85% 30.32 in 10.0 mi WNW 6.9 mph - N/A   Clear
4:15 AM 40.8 °F - 36.5 °F 85% 30.31 in 10.0 mi Calm Calm - N/A   Clear
4:35 AM 40.5 °F - 35.8 °F 83% 30.32 in 10.0 mi Calm Calm - N/A   Clear
4:55 AM 41.0 °F - 36.3 °F 83% 30.32 in 10.0 mi Calm Calm - N/A   Clear
5:15 AM 40.8 °F - 36.3 °F 84% 30.32 in 10.0 mi Calm Calm - N/A   Clear
5:35 AM 41.5 °F - 36.9 °F 83% 30.33 in 10.0 mi Calm Calm - N/A   Clear
5:55 AM 45.0 °F - 38.1 °F 77% 30.33 in 10.0 mi Calm Calm - N/A   Clear
6:15 AM 43.2 °F - 37.4 °F 80% 30.34 in 10.0 mi Calm Calm - N/A   Clear
6:35 AM 39.9 °F - 36.0 °F 86% 30.34 in 10.0 mi Calm Calm - N/A   Clear
6:55 AM 40.3 °F - 36.1 °F 85% 30.35 in 10.0 mi Calm Calm - N/A   Clear
7:15 AM 43.3 °F - 38.1 °F 82% 30.35 in 10.0 mi Calm Calm - N/A   Clear
7:35 AM 45.0 °F - 38.1 °F 77% 30.35 in 10.0 mi Calm Calm - N/A   Clear
7:55 AM 47.7 °F - 38.7 °F 71% 30.35 in 10.0 mi Calm Calm - N/A   Clear
8:15 AM 50.7 °F - 39.4 °F 65% 30.35 in 10.0 mi East 3.5 mph - N/A   Clear
8:35 AM 52.2 °F - 39.7 °F 63% 30.35 in 10.0 mi SE 4.6 mph - N/A   Clear
8:55 AM 54.0 °F - 40.3 °F 60% 30.34 in 10.0 mi SE 5.8 mph - N/A   Clear
9:15 AM 56.3 °F - 40.3 °F 55% 30.34 in 10.0 mi SE 8.1 mph - N/A   Clear
9:35 AM 58.3 °F - 39.9 °F 50% 30.34 in 10.0 mi ESE 6.9 mph - N/A   Clear
9:55 AM 60.1 °F - 39.4 °F 46% 30.34 in 10.0 mi East 4.6 mph - N/A   Clear
10:15 AM 62.6 °F - 38.1 °F 40% 30.33 in 10.0 mi SE 4.6 mph - N/A   Clear
10:35 AM 67.1 °F - 32.0 °F 27% 30.32 in 10.0 mi NW 10.4 mph 17.3 mph N/A   Clear
10:55 AM 68.9 °F - 30.2 °F 24% 30.32 in 10.0 mi NW 18.4 mph 23.0 mph N/A   Clear
11:15 AM 69.6 °F - 29.3 °F 22% 30.30 in 10.0 mi NW 18.4 mph 23.0 mph N/A   Clear
11:35 AM 70.0 °F - 26.6 °F 20% 30.30 in 10.0 mi NW 12.7 mph 21.9 mph N/A   Clear
11:55 AM 70.9 °F - 28.6 °F 21% 30.30 in 10.0 mi WNW 12.7 mph 23.0 mph N/A   Clear
12:15 PM 72.0 °F - 28.4 °F 20% 30.29 in 10.0 mi NW 13.8 mph 20.7 mph N/A   Clear
12:35 PM 72.7 °F - 28.4 °F 19% 30.28 in 10.0 mi NNW 10.4 mph 18.4 mph N/A   Clear
12:55 PM 73.4 °F - 26.4 °F 17% 30.28 in 10.0 mi WNW 17.3 mph 21.9 mph N/A   Clear
1:15 PM 73.9 °F - 27.3 °F 18% 30.27 in 10.0 mi North 6.9 mph 16.1 mph N/A   Clear
1:35 PM 73.2 °F - 25.9 °F 17% 30.26 in 10.0 mi North 3.5 mph - N/A   Clear
1:55 PM 75.4 °F - 24.8 °F 15% 30.26 in 10.0 mi North 8.1 mph 17.3 mph N/A   Clear
2:15 PM 74.8 °F - 21.6 °F 14% 30.25 in 10.0 mi NNW 3.5 mph 17.3 mph N/A   Clear
2:35 PM 76.1 °F - 23.7 °F 14% 30.24 in 10.0 mi NW 9.2 mph 18.4 mph N/A   Clear
2:55 PM 72.7 °F - 23.9 °F 16% 30.24 in 10.0 mi NNW 3.5 mph - N/A Thunderstorm Clear
3:15 PM 71.4 °F - 30.6 °F 22% 30.24 in 10.0 mi NE 11.5 mph - N/A   Mostly Cloudy
3:35 PM 72.5 °F - 31.1 °F 22% 30.24 in 10.0 mi ENE 6.9 mph - N/A   Mostly Cloudy
3:55 PM 72.5 °F - 29.3 °F 20% 30.23 in 10.0 mi South 6.9 mph - N/A   Mostly Cloudy
4:15 PM 70.3 °F - 29.3 °F 22% 30.23 in 10.0 mi ESE 9.2 mph - N/A   Scattered Clouds
4:35 PM 70.0 °F - 30.0 °F 23% 30.23 in 10.0 mi ESE 9.2 mph 16.1 mph N/A   Scattered Clouds
4:55 PM 71.4 °F - 29.3 °F 21% 30.24 in 10.0 mi SE 10.4 mph - N/A   Scattered Clouds
5:15 PM 68.5 °F - 31.3 °F 25% 30.25 in 10.0 mi South 12.7 mph - N/A   Mostly Cloudy
5:35 PM 65.3 °F - 32.2 °F 29% 30.27 in 10.0 mi SSW 9.2 mph 21.9 mph N/A   Overcast
5:55 PM 63.9 °F - 34.9 °F 34% 30.30 in 10.0 mi North 24.2 mph 35.7 mph N/A Rain Light Rain
6:15 PM 58.1 °F - 41.2 °F 53% 30.32 in 10.0 mi NE 8.1 mph 18.4 mph N/A Rain Light Rain
6:35 PM 58.6 °F - 43.3 °F 57% 30.32 in 10.0 mi ESE 12.7 mph - N/A Rain Light Rain
6:55 PM 57.7 °F - 41.7 °F 55% 30.33 in 10.0 mi East 10.4 mph 18.4 mph N/A   Overcast
7:15 PM 58.6 °F - 41.2 °F 52% 30.33 in 10.0 mi East 6.9 mph - N/A   Overcast
7:35 PM 58.8 °F - 39.4 °F 49% 30.34 in 10.0 mi SSE 4.6 mph - N/A   Mostly Cloudy
7:55 PM 57.2 °F - 43.7 °F 61% 30.35 in 10.0 mi East 3.5 mph - N/A   Clear
8:15 PM 55.6 °F - 42.1 °F 60% 30.35 in 10.0 mi NE 3.5 mph - N/A   Scattered Clouds
8:35 PM 53.4 °F - 42.6 °F 67% 30.36 in 10.0 mi SW 3.5 mph - N/A   Clear
8:55 PM 50.2 °F - 42.4 °F 75% 30.37 in 10.0 mi WSW 5.8 mph - N/A   Scattered Clouds
9:15 PM 50.0 °F - 42.3 °F 75% 30.37 in 10.0 mi NW 4.6 mph - N/A   Scattered Clouds
9:35 PM 50.2 °F - 41.7 °F 73% 30.37 in 10.0 mi Calm Calm - N/A   Clear
10:15 PM 51.1 °F - 40.6 °F 67% 30.37 in 10.0 mi WSW 4.6 mph - N/A   Clear
10:35 PM 49.1 °F - 41.9 °F 76% 30.37 in 10.0 mi West 8.1 mph - N/A   Clear
10:55 PM 48.6 °F - 42.4 °F 79% 30.37 in 10.0 mi NNW 3.5 mph - N/A   Clear
11:15 PM 47.1 °F - 41.7 °F 81% 30.37 in 10.0 mi Calm Calm - N/A   Clear
11:35 PM 48.4 °F - 40.5 °F 74% 30.37 in 10.0 mi Calm Calm - N/A   Clear
11:55 PM 45.9 °F - 40.3 °F 81% 30.37 in 10.0 mi Calm Calm - N/A   Clear